Regional Weather Roundup
Issued by NWS

Home | Current Version | Previous Version | Text Only | Print | Product List | Glossary On
Versions: 1 2 3 4 5 6 7 8 9 10 11 12 13 14 15 16 17 18 19 20 21 22 23 24 25 26 27 28 29 30 31 32 33 34 35 36 37 38 39 40 41 42 43 44 45 46 47 48 49 50
000
ASUS43 KMKX 270220
RWRWI

WISCONSIN REGIONAL WEATHER ROUNDUP
NATIONAL WEATHER SERVICE MILWAUKEE/SULLIVAN WI
800 PM CST THU FEB 26 2015

NOTE: "FAIR" INDICATES FEW OR NO CLOUDS BELOW 12,000 FEET WITH NO
SIGNIFICANT WEATHER AND/OR OBSTRUCTIONS TO VISIBILITY.

WIZ001-002-006>008-014>016-023>028-270300-
NORTHWEST WISCONSIN

CITY           SKY/WX    TMP DP  RH WIND       PRES   REMARKS
SUPERIOR ARPT  CLEAR      4 -10  51 W9        30.44R WCI -10
ASHLAND        CLEAR      4 -11  50 SW7       30.39S WCI  -8
HAYWARD        CLEAR     -4 -14  62 CALM      30.37S
SIREN          CLEAR      2 -10  56 W8        30.43S WCI -11
CUMBERLAND     CLEAR      0 -13  55 W9        30.39R WCI -16
RICE LAKE      CLEAR      1 -11  57 W6        30.42S WCI -11
CHETEK         CLEAR      1  -9  62 W3        30.41R
LADYSMITH      CLEAR     -1 -12  59 W5        30.39R WCI -11
EAU CLAIRE     FAIR       1 -12  54 W5        30.42R WCI  -9
MENOMONIE      CLEAR      4  -8  56 W7        30.44S WCI  -8
NEW RICHMOND   CLEAR      0 -10  61 W6        30.45R WCI -11
OSCEOLA        CLEAR      3 -10  55 W6        30.48S WCI  -8
$$

WIZ003>005-009-010-017-018-270300-
NORTH CENTRAL WISCONSIN

CITY           SKY/WX    TMP DP  RH WIND       PRES   REMARKS
MANITOWISH WTR CLEAR     -4 -13  65 NW3       30.29S
ARBOR VITAE    CLEAR     -4 -12  67 NW5       30.29S WCI -14
WOODRUFF       CLEAR     -4 -12  67 NW5       30.29S WCI -14
RHINELANDER    CLEAR      0 -11  59 NW5       30.28S WCI -10
EAGLE RIVER    CLEAR     -6 -13  69 CALM      30.27S
LAND O LAKES   CLEAR    -11 -16  78 CALM      30.28S
PHILLIPS       CLEAR     -3 -13  62 CALM      30.32R
TOMAHAWK       CLEAR     -8 -14  75 CALM      30.31R
MEDFORD        CLEAR      1 -10  60 W3        30.32S
MERRILL        CLEAR      1  -9  63 CALM      30.32S
$$

WIZ029-030-035-036-043>047-270300-
CENTRAL WISCONSIN

CITY           SKY/WX    TMP DP  RH WIND       PRES   REMARKS
WAUSAU         CLEAR      4  -9  55 NW6       30.32R WCI  -7
MOSINEE        CLEAR      3  -8  60 W8        30.34R WCI -10
MARSHFIELD     CLEAR      2  -9  60 W6        30.35R WCI  -9
STEVENS POINT  CLEAR      3  -8  59 W6        30.35S WCI  -8
WAUPACA        CLEAR      8  -7  52 W6        30.38R WCI  -2
WAUTOMA        CLEAR      1 -10  60 NW7       30.39R WCI -12
WISC RAPIDS    CLEAR      3 -10  54 W5        30.38R WCI  -6
CAMP DOUGLAS   NOT AVBL
$$

WIZ011>013-019>022-031-037>040-048>050-270300-
NORTHEAST WISCONSIN

CITY           SKY/WX    TMP DP  RH WIND       PRES   REMARKS
ANTIGO         CLEAR      0 -11  60 NW3       30.29R
SHAWANO        CLEAR      8  -8  47 NW3       30.36R
OCONTO         CLEAR     -3  -7  82 CALM      30.37R
STURGEON BAY   CLEAR      1  -9  60 CALM      30.36S
GREEN BAY      CLEAR      6  -3  66 SW5       30.36R WCI  -3
MANITOWOC      CLEAR      1  -5  75 W3        30.38R
APPLETON       PTCLDY     5  -9  51 W7        30.35R WCI  -7
CLINTONVILLE   CLEAR      5  -8  56 NW5       30.36R WCI  -4
OSHKOSH        CLEAR      7  -6  55 W6        30.36R WCI  -3
$$

WIZ032>034-041-042-053>061-270300-
SOUTHWEST WISCONSIN

CITY           SKY/WX    TMP DP  RH WIND       PRES   REMARKS
LA CROSSE      CLEAR      1  -9  62 NW5       30.46R WCI  -9
SPARTA         CLEAR     -3 -10  72 CALM      30.44R
VIROQUA        CLEAR      2  -8  63 NW5       30.38R WCI  -7
BOSCOBEL       CLEAR      2  -7  66 CALM      30.45R
PRAIRIE DU CHI CLEAR      3  -9  56 NW6       30.47R WCI  -8
PLATTEVILLE    CLEAR      2  -8  63 W5        30.41R WCI  -8
$$

WIZ056-057-062-063-064-067-068-270300-
SOUTH CENTRAL WISCONSIN

CITY           SKY/WX    TMP DP  RH WIND       PRES   REMARKS
REEDSBURG      CLEAR      6  -6  58 NW6       30.40R WCI  -5
BARABOO/DELLS  CLEAR      3  -9  57 CALM      30.39R
LONE ROCK      CLEAR      7  -7  52 NW9       30.43R WCI  -7
MINERAL POINT  CLEAR      5  -8  56 NW5       30.38R WCI  -4
MADISON        CLEAR      4  -8  57 NW3       30.39R
MIDDLETON      CLEAR      1  -9  62 CALM      30.39R
WATERTOWN      FAIR       1  -7  69 CALM      30.38R
MONROE         CLEAR      7  -4  61 NW7       30.37R WCI  -5
JANESVILLE     CLEAR      3  -4  72 CALM      30.39R
$$

WIZ051-052-058>065-066-070>072-270300-
SOUTHEAST WISCONSIN

CITY           SKY/WX    TMP DP  RH WIND       PRES   REMARKS
MILWAUKEE      CLEAR      9  -6  50 NW7       30.38R WCI  -2
WAUKESHA       CLEAR      3  -6  66 CALM      30.38R
MILWAUKEE/TIMM CLEAR      7  -8  51 N5        30.39R WCI  -2
RACINE         CLEAR      7  -6  55 NW7       30.40R WCI  -5
BURLINGTON     CLEAR     -4 -10  73 CALM      30.39R
KENOSHA        CLEAR      5  -7  57 NW6       30.38R WCI  -6
FOND DU LAC    CLEAR      6  -6  57 W6        30.37R WCI  -4
SHEBOYGAN      CLEAR      1  -6  72 W5        30.37R WCI  -9
WEST BEND      FAIR       5  -6  61 CALM      30.37R
JUNEAU         FAIR       5  -6  61 CALM      30.38R
$$

LSZ147-162-270300-
LAKE SUPERIOR

STATION/POSITION TIME  TEMP    WIND        PRES    WAVE
                       AIR SEA DIR/SP/G            HT/PER
                 (UTC) (F)     (DEG/KT/KT) (MB)    (FT/S)
DEVILS ISLAND    0200    9     290/ 16/ 19 1030.6R
PORT WING        0100   10     290/ 12/ 15 1029.5R
SAXON HARBOR     0140    2      CALM  /  6 1029.1R
$$

LMZ867-665-643>646-270300-
LAKE MICHIGAN

STATION/POSITION TIME  TEMP    WIND        PRES    WAVE
                       AIR SEA DIR/SP/G            HT/PER
                 (UTC) (F)     (DEG/KT/KT) (MB)    (FT/S)
NORTHPORT PIER   0123    4     250/  3/  4 1027.8R
SISTER BAY       0128    2        CALM       N/A
KEWAUNEE LAKESHO 0100    5      CALM  /  3 1027.1R
SHEBOYGAN LAKESH 0200   10     260/  4/  5 1030.6R
PORT WASHINGTON  0140    9     300/  4/  4 1029.8R
MILWAUKEE LAKESH 0200   10     320/  4/  7   N/A
KENOSHA   LAKESH 0200    8     320/  9/ 13 1028.8R
$$

TC  - TEMPERATURE IN CELSIUS
VSB - VISIBILITY IN STATUTE MILES
WCI - WIND CHILL INDEX
HX  - HEAT INDEX



USA.gov is the U.S. government's official web portal to all federal, state and local government web resources and services.